Location: Castrojimeno
(41.3966°N, 3.8473°W)
Time: 11:43:18
(UTC+00:00)

NOSS 3-3 (C) - Pass Details

Date: 15 May 2026
Orbit: 697 x 1516 km, 63.4° (Epoch: 11 January)

Event Time Altitude Azimuth Distance (km) Brightness Sun altitude
Rises 20:26:13 0° 214° (SSW) 3,103 6.6 -10.2°
Reaches altitude 10° 20:28:25 10° 214° (SW) 2,230 5.9 -10.5°
Maximum altitude 20:33:28 89° 300° (WNW) 810 3.6 -11.3°
Drops below altitude 10° 20:39:27 10° 35° (NE) 2,624 6.3 -12.1°
Sets 20:42:14 0° 36° (NE) 3,698 7.1 -12.5°
